| time (UTC) | temp C | wind direction | speed KPH | gust KPH | rain 1hr cm | rain 24hr cm | rain mn cm | humidity % | barometer mb |
| 20260506112829 | 7 | 225 | 0.0 | 1.6 | 0.00 | 0.53 | 0.03 | 88 | 1009.8 |
| 20260506112353 | 7 | 225 | 0.0 | 3.2 | 0.00 | 0.53 | 0.03 | 89 | 1009.5 |
| 20260506111856 | 7 | 225 | 0.0 | 3.2 | 0.00 | 0.53 | 0.03 | 89 | 1009.7 |
| 20260506111332 | 7 | 225 | 0.0 | 1.6 | 0.00 | 0.53 | 0.03 | 89 | 1009.5 |
| 20260506110837 | 7 | 225 | 0.0 | 1.6 | 0.00 | 0.53 | 0.03 | 89 | 1009.4 |
| 20260506110332 | 7 | 225 | 0.0 | 4.8 | 0.00 | 0.53 | 0.03 | 89 | 1009.4 |
| 20260506105834 | 7 | 225 | 1.6 | 4.8 | 0.00 | 0.53 | 0.03 | 89 | 1009.5 |
| 20260506105329 | 7 | 225 | 3.2 | 4.8 | 0.00 | 0.53 | 0.03 | 90 | 1009.4 |
| 20260506104827 | 7 | 225 | 1.6 | 4.8 | 0.00 | 0.53 | 0.03 | 90 | 1009.3 |
| 20260506104351 | 7 | 225 | 1.6 | 4.8 | 0.00 | 0.53 | 0.03 | 90 | 1009.2 |
| 20260506103834 | 7 | 225 | 3.2 | 4.8 | 0.00 | 0.53 | 0.03 | 90 | 1009.2 |
| 20260506103332 | 7 | 225 | 1.6 | 4.8 | 0.00 | 0.53 | 0.03 | 90 | 1009.0 |
| 20260506102835 | 7 | 225 | 1.6 | 4.8 | 0.00 | 0.53 | 0.03 | 90 | 1009.0 |
| 20260506102329 | 7 | 226 | 3.2 | 4.8 | 0.00 | 0.53 | 0.03 | 91 | 1009.0 |
| 20260506101826 | 7 | 226 | 3.2 | 4.8 | 0.00 | 0.53 | 0.03 | 90 | 1008.8 |
| 20260506101329 | 7 | 226 | 1.6 | 6.4 | 0.00 | 0.53 | 0.03 | 91 | 1008.6 |
| 20260506100826 | 7 | 223 | 3.2 | 6.4 | 0.00 | 0.53 | 0.03 | 91 | 1008.5 |
| 20260506100351 | 7 | 221 | 3.2 | 4.8 | 0.00 | 0.53 | 0.03 | 91 | 1008.6 |
| 20260506095834 | 7 | 221 | 1.6 | 4.8 | 0.00 | 0.53 | 0.03 | 91 | 1008.5 |
| 20260506095332 | 7 | 220 | 1.6 | 3.2 | 0.00 | 0.53 | 0.03 | 91 | 1008.6 |
| 20260506094836 | 7 | 220 | 0.0 | 3.2 | 0.00 | 0.53 | 0.03 | 91 | 1008.6 |
| 20260506094332 | 7 | 219 | 1.6 | 3.2 | 0.00 | 0.53 | 0.03 | 91 | 1008.6 |
| 20260506093828 | 7 | 218 | 1.6 | 3.2 | 0.00 | 0.53 | 0.03 | 91 | 1008.8 |
| 20260506093331 | 7 | 218 | 0.0 | 3.2 | 0.00 | 0.53 | 0.03 | 91 | 1008.8 |
| 20260506092830 | 7 | 218 | 0.0 | 3.2 | 0.00 | 0.53 | 0.03 | 91 | 1008.9 |
| 20260506092348 | 7 | 219 | 1.6 | 3.2 | 0.00 | 0.53 | 0.03 | 91 | 1008.9 |
| 20260506091850 | 7 | 218 | 1.6 | 4.8 | 0.00 | 0.53 | 0.03 | 91 | 1008.8 |
| 20260506091332 | 7 | 218 | 1.6 | 4.8 | 0.00 | 0.53 | 0.03 | 91 | 1008.8 |
| 20260506090829 | 7 | 218 | 1.6 | 3.2 | 0.00 | 0.53 | 0.03 | 91 | 1008.8 |
| 20260506090332 | 7 | 218 | 0.0 | 3.2 | 0.00 | 0.53 | 0.03 | 91 | 1008.6 |
| 20260506085849 | 7 | 218 | 1.6 | 3.2 | 0.00 | 0.53 | 0.03 | 91 | 1008.8 |
| 20260506085332 | 7 | 218 | 0.0 | 3.2 | 0.00 | 0.53 | 0.03 | 91 | 1008.7 |
| 20260506084829 | 7 | 218 | 0.0 | 6.4 | 0.00 | 0.53 | 0.03 | 90 | 1008.7 |
| 20260506084332 | 7 | 218 | 1.6 | 6.4 | 0.00 | 0.53 | 0.03 | 90 | 1008.9 |
| 20260506083829 | 7 | 218 | 1.6 | 4.8 | 0.00 | 0.53 | 0.03 | 90 | 1009.1 |
| 20260506083332 | 7 | 218 | 1.6 | 4.8 | 0.00 | 0.53 | 0.03 | 90 | 1008.9 |
| 20260506082828 | 7 | 218 | 1.6 | 4.8 | 0.00 | 0.53 | 0.03 | 89 | 1008.7 |
| 20260506082331 | 7 | 218 | 1.6 | 3.2 | 0.00 | 0.53 | 0.03 | 89 | 1008.4 |
| 20260506081827 | 7 | 218 | 0.0 | 3.2 | 0.00 | 0.53 | 0.03 | 89 | 1008.2 |
| 20260506081330 | 7 | 218 | 1.6 | 3.2 | 0.00 | 0.53 | 0.03 | 89 | 1008.3 |
| 20260506080827 | 7 | 218 | 1.6 | 3.2 | 0.00 | 0.53 | 0.03 | 89 | 1008.5 |
| 20260506080353 | 7 | 218 | 1.6 | 4.8 | 0.00 | 0.53 | 0.03 | 89 | 1008.4 |
| 20260506073329 | 7 | 214 | 1.6 | 3.2 | 0.00 | 0.53 | 0.03 | 92 | 1008.7 |
| 20260506072852 | 7 | 214 | 1.6 | 3.2 | 0.00 | 0.53 | 0.03 | 92 | 1008.6 |
| 20260506072335 | 7 | 214 | 1.6 | 3.2 | 0.00 | 0.53 | 0.03 | 92 | 1008.6 |
| 20260506071833 | 7 | 214 | 0.0 | 1.6 | 0.00 | 0.53 | 0.03 | 92 | 1008.4 |
| 20260506071336 | 7 | 214 | 0.0 | 1.6 | 0.00 | 0.53 | 0.03 | 92 | 1008.5 |
| 20260506070832 | 7 | 214 | 0.0 | 1.6 | 0.00 | 0.53 | 0.03 | 92 | 1008.6 |
| 20260506070336 | 7 | 214 | 0.0 | 0.0 | 0.00 | 0.53 | 0.03 | 92 | 1008.6 |
| 20260506062335 | 6 | 214 | 0.0 | 1.6 | 0.00 | 0.53 | 0.03 | 92 | 1009.1 |
| 20260506061828 | 6 | 214 | 0.0 | 0.0 | 0.00 | 0.53 | 0.03 | 92 | 1008.9 |
| 20260506061332 | 6 | 214 | 0.0 | 0.0 | 0.00 | 0.53 | 0.03 | 92 | 1008.9 |
| 20260506060828 | 6 | 214 | 0.0 | 0.0 | 0.00 | 0.53 | 0.03 | 92 | 1009.1 |
| 20260506060332 | 6 | 214 | 0.0 | 0.0 | 0.00 | 0.53 | 0.03 | 92 | 1009.0 |
| 20260506051351 | 7 | 216 | 0.0 | 0.0 | 0.03 | 0.56 | 0.03 | 92 | 1009.2 |
| 20260506050826 | 7 | 216 | 0.0 | 1.6 | 0.03 | 0.56 | 0.03 | 92 | 1009.3 |
| 20260506050330 | 7 | 216 | 0.0 | 1.6 | 0.03 | 0.56 | 0.03 | 91 | 1009.2 |
| 20260506044843 | 7 | 224 | 0.0 | 0.0 | 0.03 | 0.58 | 0.03 | 92 | 1009.4 |
| 20260506044337 | 7 | 224 | 0.0 | 0.0 | 0.05 | 0.58 | 0.03 | 92 | 1009.4 |
| 20260506043839 | 7 | 224 | 0.0 | 0.0 | 0.05 | 0.58 | 0.03 | 92 | 1009.4 |
| 20260506043332 | 7 | 224 | 0.0 | 1.6 | 0.05 | 0.58 | 0.03 | 92 | 1009.4 |
| 20260506042836 | 7 | 224 | 0.0 | 1.6 | 0.03 | 0.56 | 0.00 | 92 | 1009.3 |
| 20260506042334 | 7 | 224 | 0.0 | 1.6 | 0.03 | 0.56 | 0.00 | 92 | 1009.5 |
| 20260506041837 | 7 | 224 | 0.0 | 0.0 | 0.03 | 0.56 | 0.00 | 93 | 1009.3 |
| 20260506041334 | 7 | 225 | 0.0 | 0.0 | 0.05 | 0.56 | 0.00 | 92 | 1009.2 |
| 20260506040839 | 7 | 224 | 0.0 | 0.0 | 0.05 | 0.56 | 0.00 | 92 | 1009.1 |
| 20260506040335 | 7 | 224 | 0.0 | 1.6 | 0.05 | 0.56 | 0.00 | 92 | 1009.2 |
| 20260506035858 | 7 | 224 | 0.0 | 1.6 | 0.05 | 0.56 | 0.56 | 92 | 1009.2 |
| 20260506035422 | 7 | 224 | 0.0 | 0.0 | 0.05 | 0.56 | 0.56 | 92 | 1008.9 |
| 20260506034836 | 7 | 224 | 0.0 | 0.0 | 0.05 | 0.56 | 0.56 | 92 | 1009.0 |
| 20260506034333 | 7 | 224 | 0.0 | 0.0 | 0.05 | 0.53 | 0.53 | 92 | 1008.9 |
| 20260506033838 | 7 | 224 | 0.0 | 0.0 | 0.05 | 0.53 | 0.53 | 92 | 1008.9 |
| 20260506033335 | 7 | 224 | 0.0 | 0.0 | 0.05 | 0.53 | 0.53 | 92 | 1009.0 |
| 20260506032838 | 7 | 225 | 0.0 | 0.0 | 0.05 | 0.53 | 0.53 | 92 | 1008.9 |
| 20260506032332 | 7 | 224 | 0.0 | 0.0 | 0.08 | 0.53 | 0.53 | 92 | 1009.0 |
| 20260506031817 | 8 | 225 | 0.0 | 0.0 | 0.08 | 0.53 | 0.53 | 92 | 1009.1 |
| 20260506031333 | 8 | 224 | 0.0 | 0.0 | 0.05 | 0.51 | 0.51 | 93 | 1009.2 |
| 20260506030838 | 8 | 225 | 0.0 | 0.0 | 0.05 | 0.51 | 0.51 | 93 | 1009.2 |
| 20260506030337 | 8 | 224 | 0.0 | 1.6 | 0.05 | 0.51 | 0.51 | 93 | 1009.3 |
| 20260506025841 | 8 | 224 | 0.0 | 1.6 | 0.05 | 0.51 | 0.51 | 93 | 1009.5 |
| 20260506025342 | 8 | 224 | 0.0 | 1.6 | 0.05 | 0.51 | 0.51 | 93 | 1009.4 |
| 20260506024856 | 8 | 225 | 0.0 | 1.6 | 0.05 | 0.48 | 0.48 | 94 | 1009.4 |
| 20260506024338 | 8 | 224 | 0.0 | 3.2 | 0.05 | 0.48 | 0.48 | 94 | 1009.3 |
| 20260506023902 | 8 | 224 | 1.6 | 3.2 | 0.05 | 0.48 | 0.48 | 94 | 1009.2 |
| 20260506023337 | 9 | 224 | 0.0 | 4.8 | 0.05 | 0.48 | 0.48 | 94 | 1009.3 |
| 20260506022834 | 9 | 224 | 1.6 | 4.8 | 0.05 | 0.48 | 0.48 | 94 | 1009.3 |
| 20260506022336 | 9 | 225 | 1.6 | 6.4 | 0.03 | 0.46 | 0.46 | 94 | 1009.4 |
| 20260506021832 | 9 | 225 | 3.2 | 6.4 | 0.03 | 0.46 | 0.46 | 94 | 1009.4 |
| 20260506021335 | 9 | 218 | 3.2 | 4.8 | 0.03 | 0.46 | 0.46 | 94 | 1009.4 |
| 20260506020831 | 9 | 218 | 3.2 | 4.8 | 0.03 | 0.46 | 0.46 | 94 | 1009.2 |
| 20260506020335 | 9 | 218 | 1.6 | 3.2 | 0.03 | 0.46 | 0.46 | 94 | 1009.2 |
| 20260506015832 | 9 | 218 | 1.6 | 3.2 | 0.03 | 0.46 | 0.46 | 94 | 1009.1 |
| 20260506015334 | 9 | 218 | 0.0 | 3.2 | 0.00 | 0.43 | 0.43 | 94 | 1008.9 |
| 20260506014850 | 9 | 218 | 1.6 | 3.2 | 0.00 | 0.43 | 0.43 | 94 | 1008.8 |
| 20260506014352 | 9 | 218 | 1.6 | 3.2 | 0.00 | 0.43 | 0.43 | 94 | 1008.7 |
| 20260506013836 | 9 | 218 | 1.6 | 3.2 | 0.00 | 0.43 | 0.43 | 94 | 1008.6 |
| 20260506013333 | 9 | 218 | 1.6 | 3.2 | 0.03 | 0.43 | 0.43 | 94 | 1008.6 |
| 20260506012837 | 9 | 218 | 1.6 | 3.2 | 0.03 | 0.43 | 0.43 | 94 | 1008.6 |
| 20260506012334 | 9 | 218 | 1.6 | 3.2 | 0.03 | 0.43 | 0.43 | 94 | 1008.5 |
| 20260506011858 | 9 | 218 | 1.6 | 3.2 | 0.03 | 0.43 | 0.43 | 94 | 1008.4 |
| 20260506011333 | 9 | 218 | 1.6 | 3.2 | 0.03 | 0.43 | 0.43 | 94 | 1008.5 |
| 20260506010838 | 9 | 218 | 1.6 | 3.2 | 0.03 | 0.43 | 0.43 | 94 | 1008.3 |
| 20260506010334 | 9 | 218 | 1.6 | 3.2 | 0.03 | 0.43 | 0.43 | 94 | 1008.4 |
| 20260506005852 | 9 | 218 | 1.6 | 3.2 | 0.03 | 0.53 | 0.43 | 94 | 1008.3 |
| 20260506005327 | 9 | 218 | 1.6 | 4.8 | 0.03 | 0.53 | 0.43 | 94 | 1008.4 |
| 20260506004851 | 9 | 218 | 3.2 | 4.8 | 0.05 | 0.53 | 0.43 | 94 | 1008.4 |
| 20260506004355 | 9 | 217 | 1.6 | 4.8 | 0.05 | 0.53 | 0.43 | 94 | 1008.4 |
| 20260506003838 | 9 | 216 | 1.6 | 6.4 | 0.05 | 0.53 | 0.43 | 94 | 1008.4 |
| 20260506003333 | 9 | 215 | 3.2 | 6.4 | 0.03 | 0.51 | 0.41 | 94 | 1008.4 |
| 20260506002828 | 9 | 221 | 3.2 | 6.4 | 0.03 | 0.51 | 0.41 | 94 | 1008.5 |
| 20260506002331 | 9 | 210 | 3.2 | 6.4 | 0.03 | 0.51 | 0.41 | 94 | 1008.5 |
| 20260506001829 | 9 | 216 | 3.2 | 6.4 | 0.03 | 0.51 | 0.41 | 94 | 1008.5 |
| 20260506001334 | 9 | 216 | 3.2 | 4.8 | 0.03 | 0.51 | 0.41 | 94 | 1008.4 |
| 20260506000856 | 9 | 216 | 3.2 | 4.8 | 0.03 | 0.51 | 0.41 | 94 | 1008.3 |
| 20260506000330 | 9 | 218 | 1.6 | 4.8 | 0.03 | 0.51 | 0.41 | 93 | 1008.1 |
| 20260505235830 | 9 | 218 | 1.6 | 3.2 | 0.03 | 0.64 | 0.41 | 93 | 1008.0 |
| 20260505235325 | 9 | 218 | 0.0 | 3.2 | 0.03 | 0.64 | 0.41 | 93 | 1008.0 |
| 20260505234826 | 9 | 218 | 0.0 | 3.2 | 0.00 | 0.61 | 0.38 | 93 | 1007.9 |
| 20260505234323 | 9 | 218 | 0.0 | 3.2 | 0.03 | 0.61 | 0.38 | 93 | 1007.9 |
| 20260505233827 | 10 | 217 | 1.6 | 3.2 | 0.03 | 0.61 | 0.38 | 93 | 1007.8 |
| 20260505233323 | 10 | 218 | 1.6 | 3.2 | 0.03 | 0.61 | 0.38 | 93 | 1007.9 |
| 20260505232818 | 10 | 217 | 0.0 | 1.6 | 0.05 | 0.61 | 0.38 | 93 | 1007.8 |
| 20260505232321 | 10 | 218 | 0.0 | 1.6 | 0.05 | 0.61 | 0.38 | 93 | 1007.8 |
| 20260505231844 | 10 | 218 | 0.0 | 0.0 | 0.05 | 0.61 | 0.38 | 93 | 1007.9 |
| 20260505231327 | 10 | 218 | 0.0 | 0.0 | 0.08 | 0.61 | 0.38 | 93 | 1007.8 |
| 20260505230824 | 10 | 217 | 0.0 | 0.0 | 0.08 | 0.61 | 0.38 | 93 | 1007.7 |
| 20260505230334 | 10 | 217 | 0.0 | 0.0 | 0.08 | 0.61 | 0.38 | 93 | 1007.9 |
| 20260505225832 | 10 | 217 | 0.0 | 3.2 | 0.08 | 0.61 | 0.38 | 93 | 1007.9 |
| 20260505225335 | 10 | 218 | 0.0 | 3.2 | 0.10 | 0.61 | 0.38 | 93 | 1008.0 |
| 20260505224831 | 10 | 217 | 0.0 | 1.6 | 0.10 | 0.61 | 0.38 | 93 | 1007.9 |
| 20260505224335 | 10 | 217 | 0.0 | 1.6 | 0.08 | 0.58 | 0.36 | 93 | 1007.9 |
| 20260505223827 | 10 | 218 | 0.0 | 3.2 | 0.10 | 0.58 | 0.36 | 93 | 1007.9 |
| 20260505223331 | 10 | 217 | 1.6 | 3.2 | 0.10 | 0.58 | 0.36 | 92 | 1007.8 |
| 20260505222835 | 10 | 218 | 0.0 | 3.2 | 0.10 | 0.56 | 0.33 | 93 | 1007.8 |
| 20260505222340 | 10 | 218 | 1.6 | 3.2 | 0.10 | 0.56 | 0.33 | 92 | 1007.9 |
| 20260505221835 | 10 | 218 | 1.6 | 3.2 | 0.13 | 0.56 | 0.33 | 92 | 1007.8 |
| 20260505221331 | 10 | 217 | 0.0 | 4.8 | 0.10 | 0.53 | 0.30 | 92 | 1007.9 |
| 20260505220833 | 10 | 217 | 0.0 | 4.8 | 0.13 | 0.53 | 0.30 | 92 | 1007.8 |
| 20260505220328 | 10 | 218 | 1.6 | 6.4 | 0.15 | 0.53 | 0.30 | 92 | 1008.1 |
| 20260505215831 | 10 | 218 | 3.2 | 6.4 | 0.15 | 0.56 | 0.30 | 91 | 1008.2 |
| 20260505215329 | 10 | 220 | 3.2 | 6.4 | 0.15 | 0.53 | 0.28 | 91 | 1008.1 |
| 20260505214833 | 10 | 217 | 1.6 | 4.8 | 0.15 | 0.53 | 0.28 | 91 | 1008.0 |
| 20260505214328 | 10 | 217 | 1.6 | 4.8 | 0.15 | 0.53 | 0.28 | 91 | 1007.9 |
| 20260505213825 | 10 | 218 | 3.2 | 6.4 | 0.13 | 0.51 | 0.25 | 90 | 1008.0 |
| 20260505213327 | 10 | 220 | 3.2 | 6.4 | 0.13 | 0.51 | 0.25 | 90 | 1008.0 |
| 20260505212823 | 10 | 220 | 3.2 | 6.4 | 0.10 | 0.48 | 0.23 | 90 | 1008.0 |
| 20260505212325 | 10 | 222 | 3.2 | 6.4 | 0.08 | 0.46 | 0.20 | 89 | 1007.9 |
| 20260505211822 | 10 | 220 | 1.6 | 6.4 | 0.08 | 0.46 | 0.20 | 89 | 1007.9 |
| 20260505211327 | 10 | 220 | 1.6 | 8.0 | 0.05 | 0.43 | 0.18 | 88 | 1007.9 |
| 20260505210825 | 10 | 221 | 3.2 | 6.4 | 0.05 | 0.43 | 0.18 | 88 | 1008.0 |
| 20260505210330 | 10 | 220 | 3.2 | 9.7 | 0.03 | 0.41 | 0.15 | 87 | 1008.0 |
| 20260505205827 | 10 | 221 | 4.8 | 9.7 | 0.03 | 0.41 | 0.15 | 87 | 1007.9 |
| 20260505205333 | 10 | 221 | 3.2 | 12.9 | 0.00 | 0.38 | 0.13 | 87 | 1007.9 |
| 20260505204851 | 10 | 224 | 4.8 | 12.9 | 0.00 | 0.38 | 0.13 | 87 | 1008.0 |
| 20260505204335 | 10 | 220 | 4.8 | 14.5 | 0.00 | 0.38 | 0.13 | 87 | 1007.9 |
| 20260505203841 | 10 | 221 | 4.8 | 14.5 | 0.03 | 0.38 | 0.13 | 87 | 1008.0 |
| 20260505203319 | 10 | 220 | 4.8 | 12.9 | 0.03 | 0.38 | 0.13 | 88 | 1008.1 |
| 20260505202822 | 10 | 221 | 4.8 | 11.3 | 0.03 | 0.38 | 0.13 | 88 | 1008.2 |
| 20260505202349 | 10 | 220 | 4.8 | 12.9 | 0.03 | 0.38 | 0.13 | 88 | 1008.3 |
| 20260505201824 | 10 | 218 | 6.4 | 12.9 | 0.05 | 0.38 | 0.13 | 88 | 1008.2 |
| 20260505201329 | 10 | 220 | 6.4 | 14.5 | 0.05 | 0.38 | 0.13 | 89 | 1008.2 |
| 20260505200824 | 10 | 223 | 4.8 | 14.5 | 0.05 | 0.38 | 0.13 | 89 | 1008.3 |
| 20260505200450 | 10 | 220 | 3.2 | 12.9 | 0.05 | 0.38 | 0.13 | 89 | 1008.4 |
| 20260505195841 | 10 | 224 | 3.2 | 12.9 | 0.05 | 0.38 | 0.13 | 89 | 1008.4 |
| 20260505195318 | 10 | 223 | 4.8 | 9.7 | 0.05 | 0.38 | 0.13 | 88 | 1008.6 |
| 20260505194843 | 11 | 224 | 4.8 | 9.7 | 0.08 | 0.38 | 0.13 | 88 | 1008.5 |
| 20260505194321 | 11 | 219 | 4.8 | 8.0 | 0.08 | 0.38 | 0.13 | 88 | 1008.7 |
| 20260505193845 | 11 | 230 | 3.2 | 8.0 | 0.05 | 0.36 | 0.10 | 88 | 1008.5 |
| 20260505193341 | 11 | 224 | 3.2 | 12.9 | 0.05 | 0.36 | 0.10 | 87 | 1008.1 |
| 20260505192846 | 11 | 230 | 4.8 | 12.9 | 0.05 | 0.36 | 0.10 | 87 | 1008.3 |
| 20260505192350 | 11 | 228 | 3.2 | 8.0 | 0.05 | 0.36 | 0.10 | 87 | 1008.1 |
| 20260505191834 | 11 | 225 | 4.8 | 8.0 | 0.03 | 0.33 | 0.08 | 86 | 1008.3 |
| 20260505191330 | 11 | 231 | 4.8 | 8.0 | 0.03 | 0.33 | 0.08 | 85 | 1008.5 |
| 20260505190826 | 11 | 229 | 6.4 | 9.7 | 0.03 | 0.33 | 0.08 | 84 | 1008.5 |
| 20260505190330 | 11 | 229 | 6.4 | 9.7 | 0.03 | 0.33 | 0.08 | 84 | 1008.5 |
| 20260505185824 | 11 | 229 | 4.8 | 12.9 | 0.03 | 0.33 | 0.08 | 82 | 1008.4 |
| 20260505185328 | 12 | 225 | 6.4 | 12.9 | 0.03 | 0.33 | 0.08 | 81 | 1008.3 |
| 20260505184826 | 12 | 228 | 4.8 | 12.9 | 0.00 | 0.30 | 0.05 | 80 | 1008.4 |
| 20260505184329 | 12 | 230 | 4.8 | 12.9 | 0.00 | 0.30 | 0.05 | 79 | 1008.5 |
| 20260505183827 | 12 | 230 | 6.4 | 12.9 | 0.00 | 0.30 | 0.05 | 78 | 1008.3 |
| 20260505183348 | 13 | 230 | 4.8 | 9.7 | 0.00 | 0.30 | 0.05 | 77 | 1008.3 |
| 20260505182830 | 13 | 232 | 3.2 | 9.7 | 0.00 | 0.30 | 0.05 | 75 | 1008.3 |
| 20260505182326 | 13 | 230 | 4.8 | 12.9 | 0.00 | 0.30 | 0.05 | 74 | 1008.2 |
| 20260505181823 | 13 | 227 | 3.2 | 8.0 | 0.00 | 0.30 | 0.05 | 74 | 1008.0 |
| 20260505181327 | 13 | 230 | 3.2 | 8.0 | 0.00 | 0.30 | 0.05 | 72 | 1007.9 |
| 20260505180825 | 13 | 231 | 3.2 | 8.0 | 0.00 | 0.30 | 0.05 | 71 | 1007.6 |
| 20260505180330 | 13 | 233 | 3.2 | 8.0 | 0.00 | 0.30 | 0.05 | 71 | 1007.6 |
| 20260505175828 | 13 | 233 | 4.8 | 16.1 | 0.00 | 0.30 | 0.05 | 70 | 1007.5 |
| 20260505175317 | 13 | 229 | 4.8 | 16.1 | 0.00 | 0.30 | 0.05 | 71 | 1007.4 |
| 20260505174831 | 13 | 224 | 8.0 | 17.7 | 0.00 | 0.30 | 0.05 | 68 | 1007.5 |
| 20260505174334 | 13 | 235 | 9.7 | 14.5 | 0.00 | 0.30 | 0.05 | 68 | 1007.4 |
| 20260505173839 | 13 | 228 | 8.0 | 12.9 | 0.00 | 0.30 | 0.05 | 68 | 1007.3 |
| 20260505173337 | 13 | 227 | 4.8 | 8.0 | 0.00 | 0.30 | 0.05 | 71 | 1007.4 |
| 20260505172841 | 13 | 222 | 3.2 | 8.0 | 0.00 | 0.30 | 0.05 | 71 | 1007.3 |
| 20260505172337 | 13 | 222 | 4.8 | 8.0 | 0.00 | 0.30 | 0.05 | 70 | 1007.1 |
| 20260505171841 | 13 | 221 | 3.2 | 9.7 | 0.00 | 0.30 | 0.05 | 70 | 1007.1 |
| 20260505171335 | 13 | 227 | 4.8 | 9.7 | 0.00 | 0.30 | 0.05 | 70 | 1007.1 |
| 20260505170840 | 13 | 222 | 6.4 | 9.7 | 0.00 | 0.30 | 0.05 | 69 | 1007.3 |
| 20260505170344 | 13 | 222 | 4.8 | 11.3 | 0.00 | 0.30 | 0.05 | 69 | 1007.3 |
| 20260505165818 | 13 | 221 | 4.8 | 17.7 | 0.00 | 0.30 | 0.05 | 67 | 1007.3 |
| 20260505165323 | 13 | 222 | 6.4 | 17.7 | 0.00 | 0.30 | 0.05 | 67 | 1007.3 |
| 20260505164820 | 13 | 222 | 6.4 | 16.1 | 0.00 | 0.30 | 0.05 | 67 | 1007.0 |
| 20260505164325 | 13 | 228 | 9.7 | 16.1 | 0.00 | 0.30 | 0.05 | 67 | 1007.4 |
| 20260505163822 | 14 | 224 | 8.0 | 12.9 | 0.00 | 0.30 | 0.05 | 68 | 1007.4 |
| 20260505163319 | 14 | 224 | 8.0 | 12.9 | 0.00 | 0.30 | 0.05 | 69 | 1007.5 |
| 20260505162822 | 14 | 224 | 8.0 | 16.1 | 0.00 | 0.30 | 0.05 | 68 | 1007.5 |
| 20260505162319 | 14 | 225 | 8.0 | 16.1 | 0.00 | 0.30 | 0.05 | 66 | 1007.6 |
| 20260505161821 | 14 | 225 | 11.3 | 16.1 | 0.00 | 0.30 | 0.05 | 66 | 1007.5 |
| 20260505161319 | 14 | 221 | 8.0 | 17.7 | 0.00 | 0.30 | 0.05 | 67 | 1007.3 |
| 20260505160822 | 14 | 222 | 8.0 | 17.7 | 0.00 | 0.30 | 0.05 | 65 | 1007.3 |
| 20260505160320 | 14 | 225 | 8.0 | 17.7 | 0.00 | 0.30 | 0.05 | 66 | 1007.1 |
| 20260505153324 | 15 | 229 | 8.0 | 24.1 | 0.00 | 0.30 | 0.05 | 71 | 1006.6 |
| 20260505152828 | 15 | 233 | 9.7 | 24.1 | 0.00 | 0.30 | 0.05 | 71 | 1006.5 |
| 20260505152328 | 15 | 216 | 9.7 | 19.3 | 0.00 | 0.30 | 0.05 | 72 | 1006.6 |
| 20260505151823 | 15 | 225 | 6.4 | 14.5 | 0.00 | 0.30 | 0.05 | 76 | 1006.5 |
| 20260505151320 | 15 | 220 | 8.0 | 17.7 | 0.00 | 0.30 | 0.05 | 77 | 1006.4 |
| 20260505150824 | 15 | 221 | 8.0 | 17.7 | 0.00 | 0.30 | 0.05 | 78 | 1006.2 |
| 20260505150321 | 15 | 220 | 4.8 | 17.7 | 0.00 | 0.30 | 0.05 | 79 | 1006.2 |
| 20260505140329 | 14 | 222 | 6.4 | 12.9 | 0.00 | 0.30 | 0.05 | 88 | 1004.8 |
| 20260505124830 | 13 | 220 | 9.7 | 17.7 | 0.00 | 0.30 | 0.05 | 91 | 1004.3 |
| 20260505124332 | 13 | 210 | 11.3 | 17.7 | 0.00 | 0.30 | 0.05 | 91 | 1004.2 |
| 20260505123828 | 13 | 220 | 9.7 | 17.7 | 0.00 | 0.30 | 0.05 | 91 | 1004.3 |
| 20260505123332 | 13 | 217 | 11.3 | 16.1 | 0.00 | 0.30 | 0.05 | 91 | 1004.2 |
| 20260505122829 | 13 | 216 | 9.7 | 17.7 | 0.00 | 0.30 | 0.05 | 91 | 1004.3 |
| 20260505122332 | 13 | 210 | 9.7 | 17.7 | 0.00 | 0.30 | 0.05 | 91 | 1004.1 |
| 20260505121830 | 13 | 219 | 12.9 | 17.7 | 0.00 | 0.30 | 0.05 | 91 | 1004.2 |
| 20260505121334 | 13 | 215 | 11.3 | 17.7 | 0.00 | 0.30 | 0.05 | 91 | 1004.2 |
| 20260505120832 | 13 | 214 | 11.3 | 17.7 | 0.00 | 0.30 | 0.05 | 91 | 1004.1 |
| 20260505120338 | 13 | 224 | 12.9 | 19.3 | 0.00 | 0.30 | 0.05 | 91 | 1004.1 |
| 20260505115833 | 13 | 216 | 11.3 | 19.3 | 0.00 | 0.30 | 0.05 | 91 | 1004.2 |
| 20260505115337 | 13 | 221 | 12.9 | 22.5 | 0.00 | 0.30 | 0.05 | 91 | 1004.3 |
| 20260505114834 | 13 | 222 | 12.9 | 22.5 | 0.00 | 0.30 | 0.05 | 91 | 1004.3 |
| 20260505114338 | 13 | 224 | 11.3 | 17.7 | 0.00 | 0.30 | 0.05 | 91 | 1004.0 |
| 20260505113834 | 13 | 220 | 9.7 | 14.5 | 0.00 | 0.30 | 0.05 | 91 | 1003.8 |
| 20260505113337 | 13 | 220 | 8.0 | 14.5 | 0.00 | 0.30 | 0.05 | 91 | 1003.6 |